User: anonymous   Login
Location: West Cummington
(42.4920°N, 72.9680°W)
Time: 09:53:24
(UTC-04:00)
Language:

Cosmos 841 Rocket - Orbit

View from above orbital plane
View from above orbital plane
View from above satellite
View from above satellite

Ground track
Ground track

The orbit data is extracted from the following two-line orbital elements,

1  9023U 76069B   17173.88141403 +.00000017 +00000-0 +13938-4 0  9996
2  9023 074.0442 086.2611 0018673 251.1063 108.8068 14.39547365145350
Epoch (UTC): 22 June 2017 21:09:14
Eccentricity: 0.0018673
inclination: 74.0442°
perigee height: 746 km
apogee height: 773 km
right ascension of ascending node: 86.2611°
argument of perigee: 251.1063°
revolutions per day: 14.39547365
mean anomaly at epoch: 108.8068°
orbit number at epoch: 14535

The dashed part of the orbit path shows where the satellite is in the earth's shadow,  

DLR